Tracking 19709 objects as of 17-Jun-2019
HD Live streaming from Space Station
objects crossing your sky now

MARECS B2

Track MARECS B2 now!
MARECS B2 is classified as:


NORAD ID: 15386
Int'l Code: 1984-114B
Perigee: 36,544.1 km
Apogee: 37,569.6 km
Inclination: 16.3 °
Period: 1,501.1 minutes
Semi major axis: 43427 km
RCS: 3.0552 m2 (large)
Launch date: November 10, 1984
Source: European Space Agency (ESA)
Launch site: FRENCH GUIANA (FRGUI)
aabbcc
Your satellite tracking list
Your tracking list is empty




NASA's NSSDC Master Catalog

Two Line Element Set (TLE):
1 15386U 84114B   19167.79841764 -.00000258  00000-0  00000+0 0  9996
2 15386  16.2593 352.6848 0118072 351.6643 177.6407  0.95929054 88128
Source of the keplerian elements: AFSPC